TimeCDT,TemperatureF,Dew PointF,Humidity,Sea Level PressureIn,VisibilityMPH,Wind Direction,Wind SpeedMPH,Gust SpeedMPH,PrecipitationIn,Events,Conditions,WindDirDegrees,DateUTC
12:55 AM,41.0,36.0,82,30.17,10.0,ESE,8.1,-,N/A,,Clear,120,2013-03-30 05:55:00
1:55 AM,41.0,37.0,86,30.17,8.0,SE,6.9,-,N/A,,Clear,140,2013-03-30 06:55:00
2:55 AM,42.1,37.9,85,30.17,8.0,SE,6.9,-,N/A,,Clear,140,2013-03-30 07:55:00
3:55 AM,41.0,37.9,89,30.14,7.0,SE,9.2,-,N/A,,Clear,130,2013-03-30 08:55:00
4:55 AM,41.0,37.9,89,30.13,6.0,SE,6.9,-,N/A,,Clear,140,2013-03-30 09:55:00
5:55 AM,41.0,37.9,89,30.09,5.0,SE,9.2,-,N/A,,Clear,130,2013-03-30 10:55:00
6:55 AM,42.1,39.9,92,30.09,4.0,SSE,10.4,-,N/A,,Clear,150,2013-03-30 11:55:00
7:44 AM,42.8,41.0,93,30.06,2.5,SSE,11.5,-,N/A,,Clear,150,2013-03-30 12:44:00
7:52 AM,44.6,42.8,93,30.05,3.0,SSE,12.7,-,N/A,,Clear,150,2013-03-30 12:52:00
7:55 AM,44.1,42.1,93,30.07,3.0,SSE,11.5,-,N/A,,Clear,150,2013-03-30 12:55:00
8:31 AM,44.6,42.8,93,30.06,2.5,SSE,12.7,-,N/A,,Clear,160,2013-03-30 13:31:00
8:41 AM,46.4,42.8,87,30.05,3.0,SSE,12.7,-,N/A,,Clear,160,2013-03-30 13:41:00
8:55 AM,46.0,44.1,93,30.07,3.0,SSE,11.5,-,N/A,,Partly Cloudy,160,2013-03-30 13:55:00
9:55 AM,46.9,44.1,90,30.05,4.0,SSE,15.0,-,N/A,,Overcast,160,2013-03-30 14:55:00
10:55 AM,50.0,44.1,80,30.03,6.0,SSE,16.1,-,N/A,,Haze,160,2013-03-30 15:55:00
11:55 AM,50.0,43.0,77,30.03,7.0,South,15.0,-,N/A,,Overcast,170,2013-03-30 16:55:00
12:55 PM,48.0,44.1,86,30.01,3.0,South,18.4,26.5,0.01,Rain,Rain,180,2013-03-30 17:55:00
1:21 PM,48.2,44.6,87,29.99,4.0,SSW,10.4,-,0.04,Rain,Light Rain,210,2013-03-30 18:21:00
1:32 PM,48.2,44.6,87,29.99,1.8,SSW,8.1,-,0.06,Rain,Rain,200,2013-03-30 18:32:00
1:52 PM,48.2,46.4,93,29.98,2.5,South,4.6,-,0.12,Rain,Light Rain,170,2013-03-30 18:52:00
1:55 PM,48.0,46.0,93,30.01,2.5,South,4.6,-,0.12,Rain,Light Rain,180,2013-03-30 18:55:00
2:06 PM,48.2,46.4,93,29.98,3.0,South,6.9,-,0.00,Rain,Light Rain,170,2013-03-30 19:06:00
2:38 PM,48.2,46.4,93,29.96,6.0,SSE,10.4,-,0.01,Rain,Light Rain,160,2013-03-30 19:38:00
2:55 PM,48.0,46.0,93,29.98,7.0,South,10.4,-,0.01,,Overcast,170,2013-03-30 19:55:00
3:55 PM,48.9,46.0,90,29.96,6.0,South,11.5,-,N/A,,Overcast,180,2013-03-30 20:55:00
4:55 PM,50.0,46.9,89,29.94,6.0,South,9.2,-,N/A,,Overcast,190,2013-03-30 21:55:00
5:55 PM,50.0,46.9,89,29.93,6.0,SSW,8.1,-,N/A,,Overcast,200,2013-03-30 22:55:00
6:55 PM,50.0,46.9,89,29.92,4.0,SSW,6.9,-,N/A,,Overcast,200,2013-03-30 23:55:00
7:55 PM,48.9,46.9,93,29.92,5.0,Calm,Calm,-,N/A,,Overcast,0,2013-03-31 00:55:00
8:55 PM,48.9,48.0,97,29.93,4.0,SSW,4.6,-,N/A,,Overcast,200,2013-03-31 01:55:00
9:03 PM,48.2,48.2,100,29.91,3.0,SSW,4.6,-,N/A,,Overcast,200,2013-03-31 02:03:00
9:15 PM,48.2,48.2,100,29.92,2.5,SW,4.6,-,N/A,,Overcast,220,2013-03-31 02:15:00
9:29 PM,48.2,48.2,100,29.92,1.8,SW,4.6,-,N/A,,Overcast,220,2013-03-31 02:29:00
9:55 PM,48.0,48.0,100,29.95,1.2,SW,4.6,-,N/A,,Overcast,220,2013-03-31 02:55:00
10:43 PM,48.2,48.2,100,29.93,0.8,WSW,3.5,-,N/A,,Overcast,240,2013-03-31 03:43:00
10:55 PM,48.0,48.0,100,29.94,0.5,WSW,4.6,-,N/A,Fog,Fog,240,2013-03-31 03:55:00
11:55 PM,48.0,48.0,100,29.93,0.2,West,4.6,-,N/A,Fog,Fog,270,2013-03-31 04:55:00